Location: Buch
(50.1863°N, 11.0141°E)
Time: 10:23:53
(UTC+00:00)

Orbus 7S? - Pass Details

Date: 18 January 2020
Orbit: 335 x 6436 km, 56.9° (Epoch: 11 November)

Event Time Altitude Azimuth Distance (km) Brightness Sun altitude
Exits shadow 05:07:30 51° 303° (WNW) 628 3.2 -18.6°
Maximum altitude 05:08:18 90° 49° (NE) 543 3.2 -18.5°
Drops below altitude 10° 05:13:47 10° 124° (SE) 2,722 7.9 -17.6°
Sets 05:17:43 0° 125° (SE) 4,447 9.2 -17.0°
